Simultaneous Nadir Overpasses (SNOs) Predictions

Prediction of SNOs between GOES-15 and FY3D Satellite Orbit:

Table of predicted SNOs for the next 14.0 days since TLE Epoch: 1/10/2025
Index Date Time (GOES-15) GOES-15 Lat,Lon FY3D Lat,Lon Distance(km) Time Diff (sec)
1 01/12/2025 10:44:48 0.03, 61.51 -0.11, 60.95 63.83 80
2 01/13/2025 10:28:44 0.02, 61.52 0.90, 65.50 454.01 80
3 01/14/2025 22:50:32 -0.02, 61.39 0.21, 60.26 128.35 80
4 01/15/2025 22:29:08 -0.02, 61.40 -0.81, 64.81 389.16 80
5 01/17/2025 10:51:04 0.02, 61.56 -0.41, 59.55 227.89 80
6 01/18/2025 10:34:59 0.02, 61.56 0.61, 64.10 289.86 80
7 01/19/2025 22:56:47 -0.02, 61.44 0.56, 58.87 292.09 80
8 01/20/2025 22:35:22 -0.02, 61.45 -0.47, 63.42 225.32 80
9 01/22/2025 10:57:17 0.01, 61.61 -0.79, 58.17 392.42 80
10 01/23/2025 10:41:13 0.01, 61.62 0.25, 62.72 124.93 80
